www.pogodaiklimat.ru

ПОГОДА в Ильичёвске

  • Прогноз погоды в Ильичёвске
  • Монитор погоды в Ильичёвске
  • Климат города

АРХИВ ПОГОДЫ в Ильичёвске

Время (UTC), дата Ветер
(напр.,м/с)
 
Видим.   Явления Облачность Т
(С)
Тd
(С)
f
(%)
Тe
(С)
Тes
(С)
Комфортность P
(гПа)
Po
(гПа)
Тmin
(С)
Tmax
(С)
R
(мм)
S
(см)
21 25.02 штиль 0 4000 м 10/0
[As op]
+4.0 +3.3 95 +3 +3 1016.7 1014.1
00 26.02 В 2 4000 м слабый дождь 10/10 600 м
[Frnb Ns]
+2.5 +1.7 94 -1 -1 1017.3 1014.8 0.4
03 26.02 СВ 2 4000 м слабый дождь 10/10 300 м
[Frnb Ns]
+1.7 +1.2 96 -2 -2 1018.0 1015.5
06 26.02 СВ 1 5000 м дымка {дождь} 10/8 300 м
[St As op]
+1.9 +1.4 96 0 0 1018.5 1016.0 +1.6 2
09 26.02 СВ 2 4000 м дымка 10/10 300 м
[Frnb]
+3.3 +3.0 98 0 0 1019.3 1016.8
12 26.02 В 2 4000 м дымка 10/10 300 м
[Frnb]
+3.2 +2.7 97 0 0 1019.2 1016.7
15 26.02 СВ 1 500 м туман {морось} ?/? +3.4 +3.4 100 +2 +2 1019.3 1016.8
18 26.02 штиль 0 500 м туман ?/? +3.9 +3.9 100 +3 +3 1020.0 1017.5 +5.9 0.0
21 26.02 Ю 2 500 м туман ?/? +3.3 +3.3 100 0 0 1019.3 1016.8
00 27.02 Ю 5 500 м туман ?/? +5.7 +5.7 100 +1 +1 1018.7 1016.1
03 27.02 З 1 4000 м дымка {туман} 10/10 300 м
[Frnb]
+6.1 +5.4 95 +5 +5 1018.5 1016.0
06 27.02 штиль 0 500 м туман ?/? +4.0 +4.0 100 +3 +3 1019.5 1016.9 +2.8
09 27.02 В 2 <100 м туман ?/? +4.8 +4.8 100 +2 +2 1019.3 1016.8
12 27.02 В 1 500 м туман ?/? +3.4 +3.4 100 +2 +2 1018.0 1015.5
15 27.02 СВ 1 9000 м дымка {туман} 9/0
[Ac As Cc]
+6.0 +5.1 94 +5 +5 1016.5 1014.0
18 27.02 СВ 1 4000 м дымка {туман} 9/9 600 м
[Sc]
+6.6 +6.2 97 +5 +5 1015.9 1013.3 +6.6
21 27.02 С 2 10 км 9/9 600 м
[Sc]
+8.8 +6.7 87 +7 +7 1014.9 1012.5
00 28.02 С 2 10 км 9/9 600 м
[Sc]
+8.1 +6.5 90 +6 +6 1013.7 1011.3
03 28.02 СВ 3 10 км 9/0
[Ac As]
+7.4 +5.5 88 +4 +4 1013.3 1010.9
06 28.02 СВ 3 12 км 9/6 600 м
[Sc Ac As]
+7.1 +5.1 87 +4 +4 1013.9 1011.3 +6.5
09 28.02 СВ 3 15 км 9/0
[Ac As Cs]
+8.3 +5.9 85 +6 +9 1014.9 1012.5
12 28.02 В 1 20 км 8/0
[Cs]
+7.3 +5.0 85 +6 +12 1014.9 1012.4
15 28.02 штиль 0 15 км 8/5 600 м
[Sc Ac und]
+6.5 +3.4 81 +6 +6 1015.9 1013.3
18 28.02 С 1 10 км 10/0
[As op]
+6.9 +4.4 84 +6 +6 1017.2 1014.7 +8.7
21 28.02 В 1 10 км 10/0
[As op]
+5.0 +3.3 89 +4 +4 1018.5 1016.0
00 1.03 В 2 4000 м слабая морось 10/10 300 м
[St]
+4.3 +3.1 92 +1 +1 1018.9 1016.4 0.0
03 1.03 СВ 2 1000 м слабая морось 10/10 300 м
[St]
+3.6 +2.9 95 +1 +1 1013.6 1011.1
06 1.03 штиль 0 4000 м в посл. час переохл. осадки {морось} 10/10 300 м
[St]
+3.3 +2.8 97 +2 +2 1020.5 1018.0 +3.0 0.0
09 1.03 штиль 0 5000 м дымка {морось} 10/10 600 м
[Sc]
+4.0 +3.0 93 +3 +3 1020.7 1018.1
12 1.03 Ю 2 6000 м дымка {морось} 10/10 600 м
[Sc]
+3.7 +3.0 95 +1 +1 1020.1 1017.6 0.0
15 1.03 Ю 1 5000 м дымка 10/10 600 м
[Sc]
+3.3 +2.6 95 +2 +2 1018.9 1016.4
18 1.03 Ю 2 4000 м дымка 10/10 600 м
[Sc]
+3.5 +2.5 93 0 0 1018.9 1016.4 +4.2 0.0
21 1.03 Ю 2 4000 м дымка 10/10 600 м
[Sc]
+3.5 +2.5 93 0 0 1018.7 1016.1
00 2.03 Ю 2 10 км 10/10 600 м
[Sc]
+3.7 +2.7 93 +1 +1 1017.9 1015.3
03 2.03 Ю 3 10 км 10/10 600 м
[Sc]
+3.5 +2.5 93 -1 -1 1016.9 1014.4
06 2.03 Ю 6 3000 м слабая морось 10/10 300 м
[St]
+3.4 +2.7 95 -2 -2 1016.8 1014.3 +3.3 0.0
09 2.03 Ю 6 12 км {морось} 10/10 300 м
[St]
+4.1 +3.6 97 -2 -2 1016.4 1013.9
12 2.03 Ю 7 10 км {морось} 10/10 300 м
[St]
+4.5 +3.8 95 -1 -1 1014.4 1011.9 0.0
15 2.03 Ю 7 10 км 10/10 300 м
[St]
+4.5 +3.8 95 -1 -1 1013.2 1010.7
18 2.03 Ю 6 4000 м дымка 10/10 300 м
[St]
+4.4 +3.7 95 -1 -1 1013.3 1010.8 +4.7 0.0
21 2.03 Ю 6 4000 м дымка 10/10 600 м
[Sc]
+4.7 +4.0 95 -1 -1 1012.9 1010.4
00 3.03 Ю 6 4000 м дымка 10/10 600 м
[Sc]
+4.7 +4.2 97 -1 -1 1011.6 1009.1
03 3.03 Ю 4 4000 м дымка 10/10 600 м
[Sc]
+5.0 +4.5 97 +1 +1 1010.5 1008.0
06 3.03 Ю 3 1000 м дымка 10/10 300 м
[St]
+4.6 +4.4 99 +1 +1 1010.7 1008.1 +4.2
09 3.03 Ю 5 7000 м дымка 10/10 300 м
[St]
+6.3 +5.6 95 +2 +2 1010.4 1007.9
12 3.03 СЗ 5 8000 м слабый ливневой дождь 10/10 300 м
[Cb cap]
+6.9 +5.6 91 +3 +3 1010.5 1008.1 0.3
15 3.03 С 8 9000 м слабый дождь {ливн. осадки} 10/10 300 м
[Frnb Ns]
+4.6 +3.6 93 -2 -2 1012.5 1010.0
18 3.03 С 3 10 км {ливн. осадки, дождь} 9/0
[Ac As]
+5.0 +3.3 89 +1 +1 1014.5 1012.0 +8.2 4
21 3.03 СЗ 3 10 км 3/0
[Ac trans]
+3.7 +1.4 85 -0 -0 1015.6 1013.1
00 4.03 СЗ 5 10 км ясно +2.6 +0.2 84 -3 -3 1017.6 1015.1
03 4.03 СЗ 6 10 км ясно +1.6 0.0 89 -5 -5 1019.3 1016.8
06 4.03 СЗ 8 18 км ясно +2.4 +0.3 86 -4 -4 1020.9 1018.4 +1.5
09 4.03 СЗ 8 20 км ясно +6.0 +1.5 73 +1 +2 1021.7 1019.2
12 4.03 СЗ 8 25 км 5/5 600 м
[Cu med, cong]
+7.4 0.0 59 +3 +3 1021.7 1019.2
15 4.03 СЗ 4 22 км 3/3 600 м
[Cu med, cong]
+8.3 -2.7 46 +6 +6 1021.7 1019.2
18 4.03 СЗ 1 10 км ясно +5.7 -2.0 58 +5 +5 1023.1 1020.5 +8.9

 

Местоположение метеостанции Ильичевск (Одесская область, Украина): широта 46.40 долгота 30.70 высота над уровнем моря 52 м.

В архиве по умолчанию представлена погода в Ильичёвске за последнюю неделю. Архивные данные за месяц целиком и за предыдущие месяцы, начиная с января 2011 года, Вы можете получить, выбрав интересующий диапазон дат из раскрывающегося списка и нажав кнопку "Ввод!".

Внимание! Время в таблицах - всемирное. Для получения местного времени необходимо прибавить поправку, которая в Ильичёвске равна 2 ч.

Ветер - указаны скорость ветра в м/с - средняя за 10 мин, порывы в срок и между сроками (в фигурных скобках) и направление, откуда дует ветер: С - северный, СВ - северо-восточный, В - восточный, ЮВ - юго-восточный, Ю - южный, ЮЗ - юго-западный, З - западный, СЗ - северо-западный.
Видимость - горизонтальная дальность видимости в метрах или километрах. При видимости от 1 до 10 км при отсутствии осадков обычно наблюдается дымка, при ухудшении видимости до 1 км и менее - туман. В сухую погоду видимость может ухудшаться дымом, пылью или мглою.
Явления - указаны атмосферные явления, наблюдавшиеся в срок или в последний час перед сроком; фигурными скобками обозначены явления, наблюдавшиеся между сроками (за 1-3 часа до срока); квадратными скобками обозначены град или гололедные отложения с указанием их диаметра в мм.
Облачность - указаны через наклонную черту общая и нижняя облачность в баллах и высота нижней границы облаков в метрах; квадратными скобками обозначены формы облаков: Ci - перистые, Cs - перисто-слоистые, Cc - перисто-кучевые, Ac - высококучевые, As - высокослоистые, Sc - слоисто-кучевые, Ns - слоисто-дождевые, Cu - кучевые, Cb - кучево-дождевые. Подробнее классификацию облаков см. в Атласе облаков (PDF).
T - Температура воздуха - температура, измеренная на высоте 2 м над землей.
Td - Температура точки росы - температура, при понижении до которой содержащийся в воздухе водяной пар достигнет насыщения.
f - Относительная влажность воздуха - влажноcть воздуха, измеренная на высоте 2 м над землей.
Te - Эффективная температура - температура, которую ощущает одетый по сезону человек в тени. Характеристика душности погоды. При расчете учитывается влияние влажности воздуха и скорости ветра на теплоощущения человека.
Tes - Эффективная температура на солнце - температура, которую ощущает человек, с поправкой на солнечный нагрев. Характеристика знойности погоды. Зависит от высоты солнца над горизонтом, облачности и скорости ветра. Ночью, в пасмурную погоду, а также при ветре 12 м/с и более поправка равна нулю.
P - Атмосферное давление - приведенное к уровню моря атмосферное давление.
Po - Атмосферное давление - измеренное на уровне метеостанции атмосферное давление.
Tmin - Минимальная температура - минимум температуры воздуха на высоте 2 м над землей.
Tmax - Максимальная температура - максимум температуры воздуха на высоте 2 м над землей.
R - Количество осадков - Количество выпавших осадков, мм.
S - Снежный покров - Высота снежного покрова, см.